Location: Prairie Dale
(45.6972°N, 104.5033°W)
Time: 06:43:42
(UTC+00:00)

AO-109 - Pass Details

Date: 06 July 2022
Orbit: 469 x 506 km, 60.7° (Epoch: 12 August)

Event Time Altitude Azimuth Distance (km) Brightness Sun altitude
Exits shadow 08:27:34 16° 125° (SE) 1,318 ? -19.0°
Maximum altitude 08:27:53 16° 119° (ESE) 1,312 ? -18.9°
Drops below altitude 10° 08:30:15 10° 79° (E) 1,661 ? -18.8°
Sets 08:33:01 0° 58° (ENE) 2,555 ? -18.6°
